Weather Service Report


107 
ASUS43 KLSX 220307
RWRMO 

WEATHER SUMMARY FOR MISSOURI
NATIONAL WEATHER SERVICE SPRINGFIELD MO
1000 PM CDT TUE OCT 21 2014

NOTE: "FAIR" INDICATES FEW OR NO CLOUDS BELOW 12,000 FEET WITH NO
       SIGNIFICANT WEATHER AND/OR OBSTRUCTIONS TO VISIBILITY.
       CURRENT SKY AND/OR WEATHER CONDITIONS ARE NOT AVAILABLE FOR
       CHILLICOTHE AND FARMINGTON.

MOZ001>031-035>038-043-044-053-054-220400-
...NORTHERN AND WESTERN MISSOURI...
  
CITY           SKY/WX    TMP DP  RH WIND       PRES   REMARKS
KANSAS CTY INT CLEAR     59  44  57 E10       30.11R                  
KANSAS C DTWN  CLEAR     60  43  53 NE8       30.10R                  
LEE'S SUMMIT   CLEAR     60  42  51 SE6       30.12R                  
ST JOSEPH      CLEAR     59  43  55 SE8       30.10R                  
CHILLICOTHE      N/A     56  45  66 VRB5      30.16R                  
KIRKSVILLE     CLEAR     49  42  77 E6        30.19R                  
     
$$
MOZ066>068-077>081-088>096-101>105-220400-
...SOUTHWEST MISSOURI...
  
CITY           SKY/WX    TMP DP  RH WIND       PRES   REMARKS
SPRINGFIELD    CLEAR     53  45  74 CALM      30.12R                  
JOPLIN         CLEAR     58  49  72 SE7       30.11R                  
               
$$
MOZ032>034-039>042-045>050-055>058-069>072-220400-
...CENTRAL MISSOURI...  
  
CITY           SKY/WX    TMP DP  RH WIND       PRES   REMARKS
COLUMBIA       CLEAR     54  44  69 E8        30.17R                  
JEFFERSON CITY CLEAR     54  44  69 SE5       30.16R                  
ROLLA          CLEAR     53  44  71 E7        30.15R                  
SEDALIA        CLEAR     56  45  66 E6        30.15R                  
WHITEMAN AFB   CLEAR     56  45  66 E6        30.12R                  
OSAGE BEACH    CLEAR     55  45  67 E6        30.15R                  
               
$$
MOZ051-052-059>065-220400-
...EAST CENTRAL MISSOURI...
  
CITY           SKY/WX    TMP DP  RH WIND       PRES   REMARKS
ST LOUIS INTL  CLEAR     53  40  61 E5        30.20R                  
SPIRIT OF STL  CLEAR     48  43  82 CALM      30.18R                  
ST CHARLES     CLEAR     51  41  68 E6        30.19R                  
                   
$$
MOZ072>076-082>087-097>100-106>115-220400-
...SOUTH CENTRAL AND SOUTHEAST MISSOURI...
  
CITY           SKY/WX    TMP DP  RH WIND       PRES   REMARKS
CAPE GIRARDEAU FAIR      51  45  79 NE6       30.16R                  
FARMINGTON     CLEAR     52  45  76 N7        30.19R                  
POPLAR BLUFF   CLEAR     56  45  66 NE5       30.14R                  
WEST PLAINS    CLEAR     52  45  77 NE6       30.15R                  
                                       
$$

Return to Home page


Western Regional Climate Center, wrcc@dri.edu